This is the latest recevied weather packets stored in our database for station/object KR0L-13. If no packets are shown the sender has not sent any weather packets the latest 10 day(s).
| Time | Temp. | Humidity | Pressure | Rain* | Wind** | Luminosity | Snow |
|---|---|---|---|---|---|---|---|
| 1778013621 | 11.67° C | 68% | 1011.6 hPa | 0 mm | - | - | - |
| 1778013021 | 11.11° C | 69% | 1011.8 hPa | 0 mm | - | - | - |
| 1778012421 | 11.11° C | 68% | 1011.8 hPa | 0 mm | - | - | - |
| 1778011821 | 11.11° C | 71% | 1011.6 hPa | 0 mm | - | - | - |
| 1778011221 | 11.11° C | 71% | 1011.7 hPa | 0 mm | - | - | - |
| 1778010621 | 11.11° C | 74% | 1011.7 hPa | 0 mm | - | - | - |
| 1778010021 | 11.11° C | 78% | 1011.7 hPa | 0 mm | - | - | - |
| 1778009421 | 10.56° C | 78% | 1011.8 hPa | 0 mm | - | - | - |
| 1778008821 | 10.56° C | 82% | 1011.4 hPa | 0.25 mm | - | - | - |
| 1778008220 | 10° C | 81% | 1011.6 hPa | 0.25 mm | - | - | - |
| 1778007621 | 9.44° C | 82% | 1011.6 hPa | 0.25 mm | - | - | - |
| 1778007021 | 9.44° C | 85% | 1011.3 hPa | 0.25 mm | - | - | - |
| 1778006421 | 8.89° C | 85% | 1011.3 hPa | 0.25 mm | - | - | - |
| 1778005821 | 8.89° C | 85% | 1011.4 hPa | 0.25 mm | - | - | - |
| 1778005220 | 8.89° C | 80% | 1011.4 hPa | 0 mm | - | - | - |
| 1778004621 | 9.44° C | 81% | 1011.3 hPa | 0 mm | - | - | - |
| 1778004020 | 9.44° C | 78% | 1011.4 hPa | 0 mm | - | - | - |
| 1778003421 | 10° C | 78% | 1011.4 hPa | 0.25 mm | - | - | - |
| 1778002820 | 10° C | 81% | 1011.3 hPa | 0.25 mm | - | - | - |
| 1778002221 | 10° C | 84% | 1011.3 hPa | 0.25 mm | - | - | - |
| 1778001620 | 9.44° C | 87% | 1011.4 hPa | 1.27 mm | - | - | - |
| 1778001021 | 8.89° C | 91% | 1011.1 hPa | 2.29 mm | - | - | - |
| 1778000420 | 8.33° C | 92% | 1011.8 hPa | 3.3 mm | - | - | - |
| 1777999820 | 8.33° C | 90% | 1012 hPa | 3.81 mm | - | - | - |
| 1777999220 | 8.33° C | 90% | 1012.1 hPa | 3.81 mm | - | - | - |
* Rain latest hour (hover to see other rain measurements)
** Current wind speed in m/s (hover to see current wind gust speed)